Waukesha, WI

10:44 AM CDT on August 17, 2017 (GMT -0500)
Waukesha County

Weather History for KUES - December, 2013

Change the Weather History Date:

Tuesday, December 31, 2013

  Actual Average Record
Temperature  
Mean Temperature 3 °F -  
Max Temperature 6 °F 28 °F 55 °F (1965)
Min Temperature 0 °F 13 °F -12 °F (1968)
Degree Days  
Heating Degree Days 62    
Moisture  
Dew Point -2 °F    
Average Humidity 80    
Maximum Humidity 92    
Minimum Humidity 66    
Precipitation  
Precipitation 0.00 in - - ()
Sea Level Pressure  
Sea Level Pressure 30.24 in    
Wind  
Wind Speed 9 mph (WNW)    
Max Wind Speed 12 mph    
Max Gust Speed -    
Visibility 8 miles    
Events Snow    
Averages and records for this station are not official NWS values.
T = Trace of Precipitation, MM = Missing Value Source: NWS Daily Summary

Daily Weather History Graph

Daily Weather History Graph

Search for Another Location

Airport or City:

Trip Planner

Search our weather history database for the weather conditions in past years. The results will help you decide how hot, cold, wet, or windy it might be!

Date:

Astronomy

Dec. 31, 2013 Rise Set
Actual Time 7:24 AM CST 4:28 PM CST
Civil Twilight 6:52 AM CST 5:00 PM CST
Nautical Twilight 6:16 AM CST 5:36 PM CST
Astronomical Twilight 5:41 AM CST 6:10 PM CST
Moon 6:15 AM CST (12/31) 4:05 PM CST (12/31)
Length of Visible Light 10h 08m
Length of Day
9h 03m
Waning Crescent, 1% of the Moon is Illuminated
Dec 31
Waning Crescent
Jan 1
New
Jan 7
First Quarter
Jan 15
Full
Jan 23
Last Quarter

Hourly Weather History & Observations

Time (CST) Temp. Windchill Dew Point Humidity Pressure Visibility Wind Dir Wind Speed Gust Speed Precip Events Conditions
12:15 AM 1.4 °F -14.5 °F -4.0 °F 78% 30.15 in 7.0 mi West 10.4 mph - N/A   Overcast
12:35 AM 1.4 °F -13.5 °F -4.0 °F 78% 30.14 in 7.0 mi West 9.2 mph - N/A   Overcast
12:55 AM 1.4 °F -14.5 °F -4.0 °F 78% 30.15 in 10.0 mi West 10.4 mph - N/A   Overcast
1:15 AM 1.4 °F -14.5 °F -4.0 °F 78% 30.15 in 10.0 mi West 10.4 mph - N/A   Overcast
1:35 AM 1.4 °F -14.5 °F -4.0 °F 78% 30.15 in 10.0 mi West 10.4 mph - N/A   Overcast
1:55 AM 1.4 °F -13.5 °F -4.0 °F 78% 30.14 in 10.0 mi West 9.2 mph - N/A   Overcast
2:15 AM 1.4 °F -15.3 °F -4.0 °F 78% 30.15 in 10.0 mi West 11.5 mph - N/A   Overcast
2:35 AM 1.4 °F -13.5 °F -4.0 °F 78% 30.15 in 10.0 mi West 9.2 mph - N/A   Overcast
2:55 AM -0.4 °F -16.7 °F -4.0 °F 85% 30.15 in 10.0 mi West 10.4 mph - N/A   Overcast
3:15 AM -0.4 °F -17.6 °F -4.0 °F 85% 30.15 in 10.0 mi West 11.5 mph - N/A   Overcast
3:35 AM -0.4 °F -15.7 °F -4.0 °F 85% 30.15 in 10.0 mi West 9.2 mph - N/A   Overcast
3:55 AM -0.4 °F -15.7 °F -4.0 °F 85% 30.15 in 10.0 mi West 9.2 mph - N/A   Overcast
4:15 AM -0.4 °F -15.7 °F -4.0 °F 85% 30.15 in 10.0 mi West 9.2 mph - N/A   Overcast
4:35 AM -0.4 °F -16.7 °F -4.0 °F 85% 30.16 in 10.0 mi West 10.4 mph - N/A   Overcast
5:45 AM -0.4 °F -13.4 °F -5.8 °F 78% 30.18 in 10.0 mi West 6.9 mph - N/A   Overcast
6:45 AM -0.4 °F -15.7 °F -5.8 °F 78% 30.20 in 10.0 mi West 9.2 mph - N/A   Overcast
7:45 AM -0.4 °F -15.7 °F -5.8 °F 78% 30.21 in 10.0 mi West 9.2 mph - N/A   Mostly Cloudy
8:45 AM -0.4 °F -15.7 °F -5.8 °F 78% 30.22 in 10.0 mi West 9.2 mph - N/A   Clear
9:45 AM 1.4 °F -13.5 °F -5.8 °F 72% 30.26 in 10.0 mi SW 9.2 mph - N/A   Scattered Clouds
10:45 AM 1.4 °F -15.3 °F -4.0 °F 78% 30.27 in 10.0 mi West 11.5 mph - N/A   Overcast
11:45 AM 3.2 °F -13.1 °F -4.0 °F 72% 30.26 in 10.0 mi WSW 11.5 mph - N/A   Overcast
12:45 PM 3.2 °F -13.1 °F -2.2 °F 78% 30.25 in 10.0 mi West 11.5 mph - N/A   Scattered Clouds
1:45 PM 5.0 °F -6.9 °F -2.2 °F 72% 30.24 in 10.0 mi West 6.9 mph - N/A   Mostly Cloudy
2:45 PM 6.8 °F -6.9 °F -2.2 °F 67% 30.25 in 10.0 mi WSW 9.2 mph - N/A   Overcast
3:45 PM 5.0 °F -6.9 °F -0.4 °F 78% 30.26 in 1.5 mi WSW 6.9 mph - N/A Snow Light Snow
4:45 PM 3.2 °F -7.8 °F -0.4 °F 85% 30.27 in 1.2 mi WSW 5.8 mph - N/A Snow Light Snow
5:45 PM 3.2 °F -6.2 °F 1.4 °F 92% 30.27 in 1.2 mi West 4.6 mph - N/A Snow Light Snow
6:45 PM 5.0 °F -6.9 °F 1.4 °F 85% 30.29 in 3.0 mi West 6.9 mph - N/A Snow Light Snow
7:45 PM 5.0 °F -6.9 °F 1.4 °F 85% 30.31 in 3.0 mi West 6.9 mph - N/A Snow Light Snow
8:15 PM 5.0 °F -5.6 °F 1.4 °F 85% 30.32 in 3.0 mi West 5.8 mph - N/A Snow Light Snow
8:35 PM 5.0 °F -8.1 °F 1.4 °F 85% 30.32 in 5.0 mi WNW 8.1 mph - N/A Snow Light Snow
8:45 PM 5.0 °F -6.9 °F -0.4 °F 78% 30.32 in 7.0 mi WNW 6.9 mph - N/A   Overcast
8:55 PM 5.0 °F -8.1 °F 1.4 °F 85% 30.32 in 10.0 mi WNW 8.1 mph - N/A   Mostly Cloudy
9:15 PM 5.0 °F -5.6 °F 1.4 °F 85% 30.33 in 10.0 mi NW 5.8 mph - N/A   Mostly Cloudy
9:35 PM 5.0 °F -5.6 °F 1.4 °F 85% 30.33 in 10.0 mi NNW 5.8 mph - N/A   Scattered Clouds
9:55 PM 5.0 °F -6.9 °F 1.4 °F 85% 30.32 in 10.0 mi NNW 6.9 mph - N/A   Scattered Clouds
10:15 PM 5.0 °F -5.6 °F 1.4 °F 85% 30.33 in 10.0 mi NW 5.8 mph - N/A   Mostly Cloudy
10:35 PM 5.0 °F -5.6 °F 1.4 °F 85% 30.33 in 10.0 mi NNW 5.8 mph - N/A   Overcast
10:55 PM 5.0 °F -8.1 °F 1.4 °F 85% 30.32 in 10.0 mi North 8.1 mph - N/A   Mostly Cloudy
11:15 PM 5.0 °F -9.1 °F -4.0 °F 66% 30.31 in 10.0 mi North 9.2 mph - N/A   Mostly Cloudy
11:35 PM 5.0 °F -10.0 °F -4.0 °F 66% 30.31 in 10.0 mi North 10.4 mph - N/A   Overcast
11:55 PM 5.0 °F -9.1 °F -4.0 °F 66% 30.30 in 7.0 mi NNE 9.2 mph - N/A   Overcast